Year,Month,Day,Hour,Minute,Value (Times are PST for temperature in C)
2015,07,08,00,00,17.40
2015,07,08,00,01,17.40
2015,07,08,00,02,17.40
2015,07,08,00,03,17.40
2015,07,08,00,04,17.30
2015,07,08,00,05,17.30
2015,07,08,00,06,17.30
2015,07,08,00,07,17.30
2015,07,08,00,08,17.20
2015,07,08,00,09,17.20
2015,07,08,00,10,17.20
2015,07,08,00,11,17.20
2015,07,08,00,12,17.20
2015,07,08,00,13,17.10
2015,07,08,00,14,17.10
2015,07,08,00,15,17.10
2015,07,08,00,16,17.10
2015,07,08,00,17,17.00
2015,07,08,00,18,17.00
2015,07,08,00,19,17.00
2015,07,08,00,20,16.90
2015,07,08,00,21,16.90
2015,07,08,00,22,16.90
2015,07,08,00,23,16.90
2015,07,08,00,24,16.90
2015,07,08,00,25,16.80
2015,07,08,00,26,16.80
2015,07,08,00,27,16.80
2015,07,08,00,28,16.80
2015,07,08,00,29,16.80
2015,07,08,00,30,16.80
2015,07,08,00,31,16.80
2015,07,08,00,32,16.80
2015,07,08,00,33,16.80
2015,07,08,00,34,16.80
2015,07,08,00,35,16.80
2015,07,08,00,36,16.80
2015,07,08,00,37,16.70
2015,07,08,00,38,16.70
2015,07,08,00,39,16.70
2015,07,08,00,40,16.70
2015,07,08,00,41,16.70
2015,07,08,00,42,16.70
2015,07,08,00,43,16.70
2015,07,08,00,44,16.70
2015,07,08,00,45,16.70
2015,07,08,00,46,16.70
2015,07,08,00,47,16.70
2015,07,08,00,48,16.60
2015,07,08,00,49,16.60
2015,07,08,00,50,16.60
2015,07,08,00,51,16.60
2015,07,08,00,52,16.60
2015,07,08,00,53,16.60
2015,07,08,00,54,16.60
2015,07,08,00,55,16.60
2015,07,08,00,56,16.60
2015,07,08,00,57,16.60
2015,07,08,00,58,16.60
2015,07,08,00,59,16.50
2015,07,08,01,00,16.50
2015,07,08,01,01,16.50
2015,07,08,01,02,16.50
2015,07,08,01,03,16.50
2015,07,08,01,04,16.40
2015,07,08,01,05,16.40
2015,07,08,01,06,16.40
2015,07,08,01,07,16.40
2015,07,08,01,08,16.40
2015,07,08,01,09,16.40
2015,07,08,01,10,16.40
2015,07,08,01,11,16.30
2015,07,08,01,12,16.30
2015,07,08,01,13,16.30
2015,07,08,01,14,16.30
2015,07,08,01,15,16.30
2015,07,08,01,16,16.30
2015,07,08,01,17,16.30
2015,07,08,01,18,16.20
2015,07,08,01,19,16.20
2015,07,08,01,20,16.20
2015,07,08,01,21,16.20
2015,07,08,01,22,16.20
2015,07,08,01,23,16.20
2015,07,08,01,24,16.20
2015,07,08,01,25,16.10
2015,07,08,01,26,16.10
2015,07,08,01,27,16.10
2015,07,08,01,28,16.10
2015,07,08,01,29,16.10
2015,07,08,01,30,16.10
2015,07,08,01,31,16.10
2015,07,08,01,32,16.10
2015,07,08,01,33,16.10
2015,07,08,01,34,16.10
2015,07,08,01,35,16.10
2015,07,08,01,36,16.10
2015,07,08,01,37,16.10
2015,07,08,01,38,16.10
2015,07,08,01,39,16.10
2015,07,08,01,40,16.10
2015,07,08,01,41,16.10
2015,07,08,01,42,16.10
2015,07,08,01,43,16.10
2015,07,08,01,44,16.10
2015,07,08,01,45,16.10
2015,07,08,01,46,16.10
2015,07,08,01,47,16.10
2015,07,08,01,48,16.10
2015,07,08,01,49,16.10
2015,07,08,01,50,16.10
2015,07,08,01,51,16.10
2015,07,08,01,52,16.10
2015,07,08,01,53,16.10
2015,07,08,01,54,16.10
2015,07,08,01,55,16.10
2015,07,08,01,56,16.00
2015,07,08,01,57,16.00
2015,07,08,01,58,16.00
2015,07,08,01,59,16.00
2015,07,08,02,00,16.00
2015,07,08,02,01,15.90
2015,07,08,02,02,15.90
2015,07,08,02,03,15.90
2015,07,08,02,04,15.90
2015,07,08,02,05,15.90
2015,07,08,02,06,15.90
2015,07,08,02,07,15.90
2015,07,08,02,08,15.90
2015,07,08,02,09,15.90
2015,07,08,02,10,15.90
2015,07,08,02,11,15.90
2015,07,08,02,12,15.90
2015,07,08,02,13,15.90
2015,07,08,02,14,15.90
2015,07,08,02,15,15.90
2015,07,08,02,16,15.90
2015,07,08,02,17,15.90
2015,07,08,02,18,15.90
2015,07,08,02,19,15.90
2015,07,08,02,20,15.90
2015,07,08,02,21,15.90
2015,07,08,02,22,15.80
2015,07,08,02,23,15.80
2015,07,08,02,24,15.80
2015,07,08,02,25,15.80
2015,07,08,02,26,15.80
2015,07,08,02,27,15.80
2015,07,08,02,28,15.80
2015,07,08,02,29,15.80
2015,07,08,02,30,15.80
2015,07,08,02,31,15.80
2015,07,08,02,32,15.70
2015,07,08,02,33,15.70
2015,07,08,02,34,15.70
2015,07,08,02,35,15.70
2015,07,08,02,36,15.70
2015,07,08,02,37,15.60
2015,07,08,02,38,15.60
2015,07,08,02,39,15.60
2015,07,08,02,40,15.60
2015,07,08,02,41,15.60
2015,07,08,02,42,15.50
2015,07,08,02,43,15.50
2015,07,08,02,44,15.50
2015,07,08,02,45,15.50
2015,07,08,02,46,15.40
2015,07,08,02,47,15.40
2015,07,08,02,48,15.40
2015,07,08,02,49,15.40
2015,07,08,02,50,15.40
2015,07,08,02,51,15.30
2015,07,08,02,52,15.30
2015,07,08,02,53,15.30
2015,07,08,02,54,15.30
2015,07,08,02,55,15.30
2015,07,08,02,56,15.30
2015,07,08,02,57,15.30
2015,07,08,02,58,15.30
2015,07,08,02,59,15.20
2015,07,08,03,00,15.20
2015,07,08,03,01,15.20
2015,07,08,03,02,15.20
2015,07,08,03,03,15.20
2015,07,08,03,04,15.20
2015,07,08,03,05,15.20
2015,07,08,03,06,15.10
2015,07,08,03,07,15.10
2015,07,08,03,08,15.10
2015,07,08,03,09,15.10
2015,07,08,03,10,15.10
2015,07,08,03,11,15.10
2015,07,08,03,12,15.00
2015,07,08,03,13,15.00
2015,07,08,03,14,15.00
2015,07,08,03,15,15.00
2015,07,08,03,16,14.90
2015,07,08,03,17,14.90
2015,07,08,03,18,14.90
2015,07,08,03,19,14.90
2015,07,08,03,20,14.90
2015,07,08,03,21,14.90
2015,07,08,03,22,14.90
2015,07,08,03,23,14.90
2015,07,08,03,24,14.90
2015,07,08,03,25,14.90
2015,07,08,03,26,14.90
2015,07,08,03,27,14.90
2015,07,08,03,28,14.90
2015,07,08,03,29,14.90
2015,07,08,03,30,14.90
2015,07,08,03,31,14.90
2015,07,08,03,32,14.90
2015,07,08,03,33,14.80
2015,07,08,03,34,14.80
2015,07,08,03,35,14.80
2015,07,08,03,36,14.80
2015,07,08,03,37,14.80
2015,07,08,03,38,14.80
2015,07,08,03,39,14.80
2015,07,08,03,40,14.80
2015,07,08,03,41,14.80
2015,07,08,03,42,14.80
2015,07,08,03,43,14.80
2015,07,08,03,44,14.70
2015,07,08,03,45,14.70
2015,07,08,03,46,14.70
2015,07,08,03,47,14.70
2015,07,08,03,48,14.70
2015,07,08,03,49,14.70
2015,07,08,03,50,14.70
2015,07,08,03,51,14.70
2015,07,08,03,52,14.70
2015,07,08,03,53,14.70
2015,07,08,03,54,14.70
2015,07,08,03,55,14.70
2015,07,08,03,56,14.60
2015,07,08,03,57,14.60
2015,07,08,03,58,14.60
2015,07,08,03,59,14.60
2015,07,08,04,00,14.60
2015,07,08,04,01,14.60
2015,07,08,04,02,14.60
2015,07,08,04,03,14.60
2015,07,08,04,04,14.50
2015,07,08,04,05,14.50
2015,07,08,04,06,14.50
2015,07,08,04,07,14.50
2015,07,08,04,08,14.50
2015,07,08,04,09,14.50
2015,07,08,04,10,14.50
2015,07,08,04,11,14.50
2015,07,08,04,12,14.50
2015,07,08,04,13,14.40
2015,07,08,04,14,14.40
2015,07,08,04,15,14.40
2015,07,08,04,16,14.40
2015,07,08,04,17,14.40
2015,07,08,04,18,14.40
2015,07,08,04,19,14.40
2015,07,08,04,20,14.40
2015,07,08,04,21,14.40
2015,07,08,04,22,14.40
2015,07,08,04,23,14.40
2015,07,08,04,24,14.40
2015,07,08,04,25,14.30
2015,07,08,04,26,14.30
2015,07,08,04,27,14.30
2015,07,08,04,28,14.30
2015,07,08,04,29,14.30
2015,07,08,04,30,14.30
2015,07,08,04,31,14.30
2015,07,08,04,32,14.30
2015,07,08,04,33,14.30
2015,07,08,04,34,14.30
2015,07,08,04,35,14.30
2015,07,08,04,36,14.20
2015,07,08,04,37,14.20
2015,07,08,04,38,14.20
2015,07,08,04,39,14.20
2015,07,08,04,40,14.20
2015,07,08,04,41,14.20
2015,07,08,04,42,14.20
2015,07,08,04,43,14.20
2015,07,08,04,44,14.20
2015,07,08,04,45,14.20
2015,07,08,04,46,14.20
2015,07,08,04,47,14.20
2015,07,08,04,48,14.10
2015,07,08,04,49,14.10
2015,07,08,04,50,14.10
2015,07,08,04,51,14.10
2015,07,08,04,52,14.10
2015,07,08,04,53,14.10
2015,07,08,04,54,14.10
2015,07,08,04,55,14.10
2015,07,08,04,56,14.10
2015,07,08,04,57,14.10
2015,07,08,04,58,14.10
2015,07,08,04,59,14.10
2015,07,08,05,00,14.10
2015,07,08,05,01,14.10
2015,07,08,05,02,14.10
2015,07,08,05,03,14.10
2015,07,08,05,04,14.10
2015,07,08,05,05,14.00
2015,07,08,05,06,14.00
2015,07,08,05,07,14.00
2015,07,08,05,08,14.00
2015,07,08,05,09,14.00
2015,07,08,05,10,14.00
2015,07,08,05,11,14.00
2015,07,08,05,12,14.00
2015,07,08,05,13,13.90
2015,07,08,05,14,13.90
2015,07,08,05,15,13.90
2015,07,08,05,16,13.90
2015,07,08,05,17,13.90
2015,07,08,05,18,13.90
2015,07,08,05,19,13.90
2015,07,08,05,20,13.90
2015,07,08,05,21,13.90
2015,07,08,05,22,13.90
2015,07,08,05,23,13.80
2015,07,08,05,24,13.80
2015,07,08,05,25,13.80
2015,07,08,05,26,13.80
2015,07,08,05,27,13.80
2015,07,08,05,28,13.80
2015,07,08,05,29,13.80
2015,07,08,05,30,13.80
2015,07,08,05,31,13.80
2015,07,08,05,32,13.80
2015,07,08,05,33,13.80
2015,07,08,05,34,13.80
2015,07,08,05,35,13.80
2015,07,08,05,36,13.80
2015,07,08,05,37,13.80
2015,07,08,05,38,13.80
2015,07,08,05,39,13.80
2015,07,08,05,40,13.80
2015,07,08,05,41,13.80
2015,07,08,05,42,13.80
2015,07,08,05,43,13.80
2015,07,08,05,44,13.80
2015,07,08,05,45,13.80
2015,07,08,05,46,13.80
2015,07,08,05,47,13.80
2015,07,08,05,48,13.70
2015,07,08,05,49,13.80
2015,07,08,05,50,13.70
2015,07,08,05,51,13.70
2015,07,08,05,52,13.70
2015,07,08,05,53,13.70
2015,07,08,05,54,13.70
2015,07,08,05,55,13.70
2015,07,08,05,56,13.70
2015,07,08,05,57,13.70
2015,07,08,05,58,13.70
2015,07,08,05,59,13.70
2015,07,08,06,00,13.70
2015,07,08,06,01,13.70
2015,07,08,06,02,13.70
2015,07,08,06,03,13.70
2015,07,08,06,04,13.70
2015,07,08,06,05,13.70
2015,07,08,06,06,13.70
2015,07,08,06,07,13.70
2015,07,08,06,08,13.70
2015,07,08,06,09,13.70
2015,07,08,06,10,13.70
2015,07,08,06,11,13.70
2015,07,08,06,12,13.70
2015,07,08,06,13,13.70
2015,07,08,06,14,13.70
2015,07,08,06,15,13.70
2015,07,08,06,16,13.80
2015,07,08,06,17,13.80
2015,07,08,06,18,13.80
2015,07,08,06,19,13.80
2015,07,08,06,20,13.80
2015,07,08,06,21,13.80
2015,07,08,06,22,13.80
2015,07,08,06,23,13.80
2015,07,08,06,24,13.80
2015,07,08,06,25,13.80
2015,07,08,06,26,13.80
2015,07,08,06,27,13.80
2015,07,08,06,28,13.80
2015,07,08,06,29,13.90
2015,07,08,06,30,13.90
2015,07,08,06,31,13.90
2015,07,08,06,32,13.90
2015,07,08,06,33,13.90
2015,07,08,06,34,13.90
2015,07,08,06,35,14.00
2015,07,08,06,36,14.00
2015,07,08,06,37,14.00
2015,07,08,06,38,14.10
2015,07,08,06,39,14.10
2015,07,08,06,40,14.10
2015,07,08,06,41,14.10
2015,07,08,06,42,14.10
2015,07,08,06,43,14.10
2015,07,08,06,44,14.10
2015,07,08,06,45,14.20
2015,07,08,06,46,14.20
2015,07,08,06,47,14.20
2015,07,08,06,48,14.20
2015,07,08,06,49,14.20
2015,07,08,06,50,14.20
2015,07,08,06,51,14.30
2015,07,08,06,52,14.30
2015,07,08,06,53,14.30
2015,07,08,06,54,14.30
2015,07,08,06,55,14.30
2015,07,08,06,56,14.30
2015,07,08,06,57,14.40
2015,07,08,06,58,14.40
2015,07,08,06,59,14.40
2015,07,08,07,00,14.40
2015,07,08,07,01,14.40
2015,07,08,07,02,14.50
2015,07,08,07,03,14.50
2015,07,08,07,04,14.50
2015,07,08,07,05,14.50
2015,07,08,07,06,14.60
2015,07,08,07,07,14.60
2015,07,08,07,08,14.60
2015,07,08,07,09,14.60
2015,07,08,07,10,14.70
2015,07,08,07,11,14.70
2015,07,08,07,12,14.70
2015,07,08,07,13,14.70
2015,07,08,07,14,14.80
2015,07,08,07,15,14.80
2015,07,08,07,16,14.80
2015,07,08,07,17,14.80
2015,07,08,07,18,14.80
2015,07,08,07,19,14.90
2015,07,08,07,20,14.90
2015,07,08,07,21,14.90
2015,07,08,07,22,15.00
2015,07,08,07,23,15.00
2015,07,08,07,24,15.00
2015,07,08,07,25,15.10
2015,07,08,07,26,15.10
2015,07,08,07,27,15.10
2015,07,08,07,28,15.20
2015,07,08,07,29,15.20
2015,07,08,07,30,15.30
2015,07,08,07,31,15.30
2015,07,08,07,32,15.30
2015,07,08,07,33,15.40
2015,07,08,07,34,15.40
2015,07,08,07,35,15.40
2015,07,08,07,36,15.50
2015,07,08,07,37,15.50
2015,07,08,07,38,15.60
2015,07,08,07,39,15.60
2015,07,08,07,40,15.60
2015,07,08,07,41,15.60
2015,07,08,07,42,15.70
2015,07,08,07,43,15.70
2015,07,08,07,44,15.70
2015,07,08,07,45,15.80
2015,07,08,07,46,15.80
2015,07,08,07,47,15.80
2015,07,08,07,48,15.80
2015,07,08,07,49,15.90
2015,07,08,07,50,15.90
2015,07,08,07,51,15.90
2015,07,08,07,52,15.90
2015,07,08,07,53,15.90
2015,07,08,07,54,15.90
2015,07,08,07,55,16.00
2015,07,08,07,56,16.00
2015,07,08,07,57,16.00
2015,07,08,07,58,16.00
2015,07,08,07,59,16.10
2015,07,08,08,00,16.10
2015,07,08,08,01,16.20
2015,07,08,08,02,16.20
2015,07,08,08,03,16.20
2015,07,08,08,04,16.30
2015,07,08,08,05,16.30
2015,07,08,08,06,16.30
2015,07,08,08,07,16.30
2015,07,08,08,08,16.40
2015,07,08,08,09,16.40
2015,07,08,08,10,16.40
2015,07,08,08,11,16.40
2015,07,08,08,12,16.50
2015,07,08,08,13,16.50
2015,07,08,08,14,16.50
2015,07,08,08,15,16.50
2015,07,08,08,16,16.50
2015,07,08,08,17,16.60
2015,07,08,08,18,16.60
2015,07,08,08,19,16.60
2015,07,08,08,20,16.70
2015,07,08,08,21,16.70
2015,07,08,08,22,16.80
2015,07,08,08,23,16.90
2015,07,08,08,24,16.90
2015,07,08,08,25,16.90
2015,07,08,08,26,16.90
2015,07,08,08,27,17.00
2015,07,08,08,28,17.00
2015,07,08,08,29,17.10
2015,07,08,08,30,17.10
2015,07,08,08,31,17.20
2015,07,08,08,32,17.20
2015,07,08,08,33,17.30
2015,07,08,08,34,17.30
2015,07,08,08,35,17.40
2015,07,08,08,36,17.50
2015,07,08,08,37,17.60
2015,07,08,08,38,17.60
2015,07,08,08,39,17.60
2015,07,08,08,40,17.60
2015,07,08,08,41,17.60
2015,07,08,08,42,17.50
2015,07,08,08,43,17.40
2015,07,08,08,44,17.40
2015,07,08,08,45,17.40
2015,07,08,08,46,17.40
2015,07,08,08,47,17.30
2015,07,08,08,48,17.30
2015,07,08,08,49,17.30
2015,07,08,08,50,17.30
2015,07,08,08,51,17.40
2015,07,08,08,52,17.40
2015,07,08,08,53,17.50
2015,07,08,08,54,17.50
2015,07,08,08,55,17.50
2015,07,08,08,56,17.50
2015,07,08,08,57,17.50
2015,07,08,08,58,17.50
2015,07,08,08,59,17.50
2015,07,08,09,00,17.50
2015,07,08,09,01,17.60
2015,07,08,09,02,17.60
2015,07,08,09,03,17.70
2015,07,08,09,04,17.80
2015,07,08,09,05,17.80
2015,07,08,09,06,17.90
2015,07,08,09,07,17.90
2015,07,08,09,08,18.00
2015,07,08,09,09,18.10
2015,07,08,09,10,18.20
2015,07,08,09,11,18.30
2015,07,08,09,12,18.30
2015,07,08,09,13,18.50
2015,07,08,09,14,18.50
2015,07,08,09,15,18.60
2015,07,08,09,16,18.60
2015,07,08,09,17,18.50
2015,07,08,09,18,18.50
2015,07,08,09,19,18.50
2015,07,08,09,20,18.40
2015,07,08,09,21,18.40
2015,07,08,09,22,18.30
2015,07,08,09,23,18.30
2015,07,08,09,24,18.30
2015,07,08,09,25,18.30
2015,07,08,09,26,18.30
2015,07,08,09,27,18.30
2015,07,08,09,28,18.30
2015,07,08,09,29,18.30
2015,07,08,09,30,18.30
2015,07,08,09,31,18.30
2015,07,08,09,32,18.30
2015,07,08,09,33,18.30
2015,07,08,09,34,18.30
2015,07,08,09,35,18.40
2015,07,08,09,36,18.40
2015,07,08,09,37,18.40
2015,07,08,09,38,18.50
2015,07,08,09,39,18.50
2015,07,08,09,40,18.50
2015,07,08,09,41,18.50
2015,07,08,09,42,18.60
2015,07,08,09,43,18.60
2015,07,08,09,44,18.50
2015,07,08,09,45,18.50
2015,07,08,09,46,18.50
2015,07,08,09,47,18.50
2015,07,08,09,48,18.50
2015,07,08,09,49,18.50
2015,07,08,09,50,18.50
2015,07,08,09,51,18.60
2015,07,08,09,52,18.60
2015,07,08,09,53,18.70
2015,07,08,09,54,18.80
2015,07,08,09,55,18.80
2015,07,08,09,56,18.90
2015,07,08,09,57,19.00
2015,07,08,09,58,19.10
2015,07,08,09,59,19.10
2015,07,08,10,00,19.20
2015,07,08,10,01,19.30
2015,07,08,10,02,19.40
2015,07,08,10,03,19.40
2015,07,08,10,04,19.50
2015,07,08,10,05,19.50
2015,07,08,10,06,19.40
2015,07,08,10,07,19.40
2015,07,08,10,08,19.40
2015,07,08,10,09,19.40
2015,07,08,10,10,19.50
2015,07,08,10,11,19.50
2015,07,08,10,12,19.60
2015,07,08,10,13,19.60
2015,07,08,10,14,19.60
2015,07,08,10,15,19.60
2015,07,08,10,16,19.60
2015,07,08,10,17,19.60
2015,07,08,10,18,19.60
2015,07,08,10,19,19.60
2015,07,08,10,20,19.60
2015,07,08,10,21,19.70
2015,07,08,10,22,19.70
2015,07,08,10,23,19.70
2015,07,08,10,24,19.80
2015,07,08,10,25,19.80
2015,07,08,10,26,19.90
2015,07,08,10,27,19.90
2015,07,08,10,28,19.90
2015,07,08,10,29,19.90
2015,07,08,10,30,19.90
2015,07,08,10,31,19.90
2015,07,08,10,32,19.90
2015,07,08,10,33,19.90
2015,07,08,10,34,20.00
2015,07,08,10,35,20.00
2015,07,08,10,36,20.10
2015,07,08,10,37,20.10
2015,07,08,10,38,20.20
2015,07,08,10,39,20.20
2015,07,08,10,40,20.30
2015,07,08,10,41,20.30
2015,07,08,10,42,20.30
2015,07,08,10,43,20.30
2015,07,08,10,44,20.30
2015,07,08,10,45,20.30
2015,07,08,10,46,20.40
2015,07,08,10,47,20.40
2015,07,08,10,48,20.50
2015,07,08,10,49,20.50
2015,07,08,10,50,20.50
2015,07,08,10,51,20.60
2015,07,08,10,52,20.60
2015,07,08,10,53,20.70
2015,07,08,10,54,20.70
2015,07,08,10,55,20.70
2015,07,08,10,56,20.70
2015,07,08,10,57,20.70
2015,07,08,10,58,20.70
2015,07,08,10,59,20.70
2015,07,08,11,00,20.70
2015,07,08,11,01,20.70
2015,07,08,11,02,20.80
2015,07,08,11,03,20.80
2015,07,08,11,04,20.80
2015,07,08,11,05,20.90
2015,07,08,11,06,20.90
2015,07,08,11,07,20.90
2015,07,08,11,08,21.00
2015,07,08,11,09,21.00
2015,07,08,11,10,21.10
2015,07,08,11,11,21.20
2015,07,08,11,12,21.20
2015,07,08,11,13,21.30
2015,07,08,11,14,21.30
2015,07,08,11,15,21.30
2015,07,08,11,16,21.30
2015,07,08,11,17,21.30
2015,07,08,11,18,21.40
2015,07,08,11,19,21.40
2015,07,08,11,20,21.50
2015,07,08,11,21,21.50
2015,07,08,11,22,21.60
2015,07,08,11,23,21.60
2015,07,08,11,24,21.60
2015,07,08,11,25,21.60
2015,07,08,11,26,21.70
2015,07,08,11,27,21.70
2015,07,08,11,28,21.80
2015,07,08,11,29,21.90
2015,07,08,11,30,22.00
2015,07,08,11,31,22.10
2015,07,08,11,32,22.10
2015,07,08,11,33,22.10
2015,07,08,11,34,22.20
2015,07,08,11,35,22.20
2015,07,08,11,36,22.30
2015,07,08,11,37,22.40
2015,07,08,11,38,22.50
2015,07,08,11,39,22.50
2015,07,08,11,40,22.60
2015,07,08,11,41,22.60
2015,07,08,11,42,22.60
2015,07,08,11,43,22.50
2015,07,08,11,44,22.50
2015,07,08,11,45,22.50
2015,07,08,11,46,22.50
2015,07,08,11,47,22.50
2015,07,08,11,48,22.60
2015,07,08,11,49,22.60
2015,07,08,11,50,22.70
2015,07,08,11,51,22.70
2015,07,08,11,52,22.70
2015,07,08,11,53,22.80
2015,07,08,11,54,22.90
2015,07,08,11,55,23.00
2015,07,08,11,56,23.10
2015,07,08,11,57,23.10
2015,07,08,11,58,23.10
2015,07,08,11,59,23.00
2015,07,08,12,00,23.00
2015,07,08,12,01,23.00
2015,07,08,12,02,23.00
2015,07,08,12,03,23.00
2015,07,08,12,04,23.10
2015,07,08,12,05,23.20
2015,07,08,12,06,23.20
2015,07,08,12,07,23.30
2015,07,08,12,08,23.30
2015,07,08,12,09,23.40
2015,07,08,12,10,23.40
2015,07,08,12,11,23.40
2015,07,08,12,12,23.40
2015,07,08,12,13,23.50
2015,07,08,12,14,23.50
2015,07,08,12,15,23.60
2015,07,08,12,16,23.60
2015,07,08,12,17,23.70
2015,07,08,12,18,23.80
2015,07,08,12,19,23.80
2015,07,08,12,20,23.90
2015,07,08,12,21,23.90
2015,07,08,12,22,23.80
2015,07,08,12,23,23.80
2015,07,08,12,24,23.90
2015,07,08,12,25,23.90
2015,07,08,12,26,23.90
2015,07,08,12,27,24.00
2015,07,08,12,28,24.10
2015,07,08,12,29,24.20
2015,07,08,12,30,24.30
2015,07,08,12,31,24.40
2015,07,08,12,32,24.40
2015,07,08,12,33,24.40
2015,07,08,12,34,24.40
2015,07,08,12,35,24.40
2015,07,08,12,36,24.40
2015,07,08,12,37,24.40
2015,07,08,12,38,24.30
2015,07,08,12,39,24.30
2015,07,08,12,40,24.30
2015,07,08,12,41,24.40
2015,07,08,12,42,24.40
2015,07,08,12,43,24.50
2015,07,08,12,44,24.50
2015,07,08,12,45,24.50
2015,07,08,12,46,24.40
2015,07,08,12,47,24.40
2015,07,08,12,48,24.40
2015,07,08,12,49,24.40
2015,07,08,12,50,24.40
2015,07,08,12,51,24.40
2015,07,08,12,52,24.40
2015,07,08,12,53,24.50
2015,07,08,12,54,24.60
2015,07,08,12,55,24.70
2015,07,08,12,56,24.80
2015,07,08,12,57,24.90
2015,07,08,12,58,25.00
2015,07,08,12,59,25.10
2015,07,08,13,00,25.10
2015,07,08,13,01,25.10
2015,07,08,13,02,25.10
2015,07,08,13,03,25.10
2015,07,08,13,04,25.10
2015,07,08,13,05,25.20
2015,07,08,13,06,25.20
2015,07,08,13,07,25.20
2015,07,08,13,08,25.30
2015,07,08,13,09,25.30
2015,07,08,13,10,25.40
2015,07,08,13,11,25.40
2015,07,08,13,12,25.40
2015,07,08,13,13,25.50
2015,07,08,13,14,25.50
2015,07,08,13,15,25.60
2015,07,08,13,16,25.70
2015,07,08,13,17,25.80
2015,07,08,13,18,25.90
2015,07,08,13,19,26.00
2015,07,08,13,20,26.00
2015,07,08,13,21,26.10
2015,07,08,13,22,26.10
2015,07,08,13,23,26.10
2015,07,08,13,24,26.20
2015,07,08,13,25,26.20
2015,07,08,13,26,26.30
2015,07,08,13,27,26.40
2015,07,08,13,28,26.50
2015,07,08,13,29,26.60
2015,07,08,13,30,26.60
2015,07,08,13,31,26.70
2015,07,08,13,32,26.70
2015,07,08,13,33,26.80
2015,07,08,13,34,26.80
2015,07,08,13,35,26.90
2015,07,08,13,36,26.90
2015,07,08,13,37,26.90
2015,07,08,13,38,27.00
2015,07,08,13,39,27.00
2015,07,08,13,40,27.10
2015,07,08,13,41,27.10
2015,07,08,13,42,27.10
2015,07,08,13,43,27.10
2015,07,08,13,44,27.20
2015,07,08,13,45,27.20
2015,07,08,13,46,27.30
2015,07,08,13,47,27.40
2015,07,08,13,48,27.40
2015,07,08,13,49,27.40
2015,07,08,13,50,27.40
2015,07,08,13,51,27.40
2015,07,08,13,52,27.50
2015,07,08,13,53,27.60
2015,07,08,13,54,27.60
2015,07,08,13,55,27.60
2015,07,08,13,56,27.60
2015,07,08,13,57,27.70
2015,07,08,13,58,27.70
2015,07,08,13,59,27.70
2015,07,08,14,00,27.60
2015,07,08,14,01,27.60
2015,07,08,14,02,27.60
2015,07,08,14,03,27.70
2015,07,08,14,04,27.70
2015,07,08,14,05,27.80
2015,07,08,14,06,27.90
2015,07,08,14,07,28.00
2015,07,08,14,08,28.10
2015,07,08,14,09,28.10
2015,07,08,14,10,28.10
2015,07,08,14,11,28.20
2015,07,08,14,12,28.40
2015,07,08,14,13,28.50
2015,07,08,14,14,28.60
2015,07,08,14,15,28.70
2015,07,08,14,16,28.70
2015,07,08,14,17,28.70
2015,07,08,14,18,28.80
2015,07,08,14,19,28.80
2015,07,08,14,20,28.80
2015,07,08,14,21,28.90
2015,07,08,14,22,28.90
2015,07,08,14,23,28.90
2015,07,08,14,24,28.90
2015,07,08,14,25,28.90
2015,07,08,14,26,28.90
2015,07,08,14,27,29.00
2015,07,08,14,28,29.10
2015,07,08,14,29,29.20
2015,07,08,14,30,29.30
2015,07,08,14,31,29.30
2015,07,08,14,32,29.40
2015,07,08,14,33,29.40
2015,07,08,14,34,29.50
2015,07,08,14,35,29.50
2015,07,08,14,36,29.50
2015,07,08,14,37,29.50
2015,07,08,14,38,29.40
2015,07,08,14,39,29.40
2015,07,08,14,40,29.30
2015,07,08,14,41,29.30
2015,07,08,14,42,29.30
2015,07,08,14,43,29.30
2015,07,08,14,44,29.30
2015,07,08,14,45,29.30
2015,07,08,14,46,29.30
2015,07,08,14,47,29.30
2015,07,08,14,48,29.30
2015,07,08,14,49,29.30
2015,07,08,14,50,29.30
2015,07,08,14,51,29.30
2015,07,08,14,52,29.30
2015,07,08,14,53,29.30
2015,07,08,14,54,29.40
2015,07,08,14,55,29.50
2015,07,08,14,56,29.50
2015,07,08,14,57,29.60
2015,07,08,14,58,29.60
2015,07,08,14,59,29.50
2015,07,08,15,00,29.50
2015,07,08,15,01,29.50
2015,07,08,15,02,29.50
2015,07,08,15,03,29.50
2015,07,08,15,04,29.50
2015,07,08,15,05,29.50
2015,07,08,15,06,29.60
2015,07,08,15,07,29.60
2015,07,08,15,08,29.60
2015,07,08,15,09,29.70
2015,07,08,15,10,29.70
2015,07,08,15,11,29.70
2015,07,08,15,12,29.70
2015,07,08,15,13,29.80
2015,07,08,15,14,29.80
2015,07,08,15,15,29.90
2015,07,08,15,16,30.00
2015,07,08,15,17,30.00
2015,07,08,15,18,30.00
2015,07,08,15,19,30.10
2015,07,08,15,20,30.10
2015,07,08,15,21,30.10
2015,07,08,15,22,30.10
2015,07,08,15,23,30.10
2015,07,08,15,24,30.10
2015,07,08,15,25,30.20
2015,07,08,15,26,30.30
2015,07,08,15,27,30.30
2015,07,08,15,28,30.30
2015,07,08,15,29,30.30
2015,07,08,15,30,30.30
2015,07,08,15,31,30.20
2015,07,08,15,32,30.20
2015,07,08,15,33,30.20
2015,07,08,15,34,30.10
2015,07,08,15,35,30.10
2015,07,08,15,36,30.20
2015,07,08,15,37,30.20
2015,07,08,15,38,30.30
2015,07,08,15,39,30.30
2015,07,08,15,40,30.20
2015,07,08,15,41,30.20
2015,07,08,15,42,30.10
2015,07,08,15,43,30.00
2015,07,08,15,44,30.00
2015,07,08,15,45,29.90
2015,07,08,15,46,30.00
2015,07,08,15,47,30.00
2015,07,08,15,48,30.10
2015,07,08,15,49,30.20
2015,07,08,15,50,30.20
2015,07,08,15,51,30.20
2015,07,08,15,52,30.20
2015,07,08,15,53,30.10
2015,07,08,15,54,30.10
2015,07,08,15,55,30.10
2015,07,08,15,56,30.00
2015,07,08,15,57,30.00
2015,07,08,15,58,29.90
2015,07,08,15,59,29.90
2015,07,08,16,00,29.90
2015,07,08,16,01,30.00
2015,07,08,16,02,30.10
2015,07,08,16,03,30.20
2015,07,08,16,04,30.30
2015,07,08,16,05,30.40
2015,07,08,16,06,30.40
2015,07,08,16,07,30.50
2015,07,08,16,08,30.60
2015,07,08,16,09,30.60
2015,07,08,16,10,30.70
2015,07,08,16,11,30.70
2015,07,08,16,12,30.70
2015,07,08,16,13,30.70
2015,07,08,16,14,30.70
2015,07,08,16,15,30.70
2015,07,08,16,16,30.70
2015,07,08,16,17,30.70
2015,07,08,16,18,30.70
2015,07,08,16,19,30.70
2015,07,08,16,20,30.70
2015,07,08,16,21,30.60
2015,07,08,16,22,30.60
2015,07,08,16,23,30.50
2015,07,08,16,24,30.50
2015,07,08,16,25,30.40
2015,07,08,16,26,30.40
2015,07,08,16,27,30.30
2015,07,08,16,28,30.30
2015,07,08,16,29,30.20
2015,07,08,16,30,30.20
2015,07,08,16,31,30.30
2015,07,08,16,32,30.30
2015,07,08,16,33,30.30
2015,07,08,16,34,30.30
2015,07,08,16,35,30.30
2015,07,08,16,36,30.30
2015,07,08,16,37,30.20
2015,07,08,16,38,30.10
2015,07,08,16,39,30.10
2015,07,08,16,40,30.10
2015,07,08,16,41,30.00
2015,07,08,16,42,30.00
2015,07,08,16,43,29.90
2015,07,08,16,44,29.90
2015,07,08,16,45,29.80
2015,07,08,16,46,29.80
2015,07,08,16,47,29.80
2015,07,08,16,48,29.80
2015,07,08,16,49,29.90
2015,07,08,16,50,29.90
2015,07,08,16,51,29.90
2015,07,08,16,52,29.90
2015,07,08,16,53,29.90
2015,07,08,16,54,29.90
2015,07,08,16,55,29.80
2015,07,08,16,56,29.80
2015,07,08,16,57,29.80
2015,07,08,16,58,29.80
2015,07,08,16,59,29.80
2015,07,08,17,00,29.80
2015,07,08,17,01,29.80
2015,07,08,17,02,29.80
2015,07,08,17,03,29.80
2015,07,08,17,04,29.80
2015,07,08,17,05,29.80
2015,07,08,17,06,29.80
2015,07,08,17,07,29.70
2015,07,08,17,08,29.70
2015,07,08,17,09,29.70
2015,07,08,17,10,29.70
2015,07,08,17,11,29.80
2015,07,08,17,12,29.80
2015,07,08,17,13,29.80
2015,07,08,17,14,29.80
2015,07,08,17,15,29.80
2015,07,08,17,16,29.70
2015,07,08,17,17,29.70
2015,07,08,17,18,29.70
2015,07,08,17,19,29.70